Location: NJAA Observatory
(40.6819°N, 74.8979°W)
Time: 04:23:51
(UTC-05:00)

Vanguard 1 - All Passes

Search period start: 27 February 2017 00:00
Search period end: 09 March 2017 00:00
Orbit: 653 x 3831 km, 34.3° (Epoch: 25 February)

Date Brightness Start Highest point End Pass type
(mag) Time Alt. Az. Time Alt. Az. Time Alt. Az.
27 Feb - 00:57:24 10° WSW 01:07:03 14° SW 01:16:23 10° SSW visible
27 Feb - 13:27:57 10° SSE 13:32:38 16° SE 13:38:49 10° E daylight
27 Feb - 15:42:49 10° SW 15:51:59 51° SSE 16:08:29 10° E daylight
27 Feb - 18:02:03 10° WSW 18:14:53 70° S 18:36:43 10° E visible
27 Feb - 20:23:20 10° W 20:40:07 60° SSW 21:02:56 10° SE visible
27 Feb - 22:47:32 10° W 23:05:01 34° SW 23:23:46 10° SSE visible
28 Feb - 13:46:58 10° S 13:52:56 23° SE 14:01:49 10° E daylight
28 Feb - 16:03:28 10° SW 16:12:57 58° SSE 16:30:22 10° E daylight
28 Feb - 18:23:07 10° W 18:36:20 69° S 18:58:25 10° ESE visible
28 Feb - 20:44:42 10° W 21:01:32 53° SSW 21:23:48 10° SE visible
28 Feb - 23:10:02 10° W 23:25:59 27° SW 23:42:51 10° S visible
01 Mar - 14:06:44 10° SSW 14:13:23 30° SE 14:24:09 10° E daylight
01 Mar - 16:24:15 10° WSW 16:34:04 63° SSE 16:52:14 10° E daylight
01 Mar - 18:44:14 10° W 18:57:49 67° S 19:20:00 10° ESE visible
01 Mar - 21:06:10 10° W 21:22:52 46° SSW 21:44:19 10° SE visible
01 Mar - 23:33:23 10° W 23:46:52 20° SW 00:00:57 10° S visible
02 Mar - 14:26:55 10° SSW 14:34:00 38° SSE 14:46:11 10° E daylight
02 Mar - 16:45:09 10° WSW 16:55:18 66° S 17:14:04 10° E daylight
02 Mar - 19:05:23 10° W 19:19:16 62° SSW 19:41:24 10° ESE visible
02 Mar - 21:27:51 10° W 21:44:07 39° SSW 22:04:27 10° SSE visible
02 Mar - 23:58:42 10° WSW 00:07:44 14° SW 00:17:01 10° SSW visible
03 Mar - 12:33:27 10° SSE 12:35:56 12° SE 12:38:50 10° ESE daylight
03 Mar - 14:47:22 10° SW 14:54:45 46° SSE 15:08:04 10° E daylight
03 Mar - 17:06:07 10° WSW 17:16:36 68° S 17:35:51 10° ESE daylight
03 Mar - 19:26:35 10° W 19:40:42 57° SSW 20:02:33 10° SE visible
03 Mar - 21:49:49 10° W 22:05:18 32° SW 22:24:05 10° SSE visible
04 Mar - 12:51:53 10° S 12:56:17 18° SE 13:02:18 10° E daylight
04 Mar - 15:07:59 10° SW 15:15:40 54° SSE 15:29:52 10° E daylight
04 Mar - 17:27:08 10° W 17:37:57 66° S 17:57:34 10° ESE daylight
04 Mar - 19:47:53 10° W 20:02:06 50° SSW 20:23:26 10° SE visible
04 Mar - 22:12:17 10° W 22:26:25 25° SW 22:43:01 10° S visible
05 Mar - 13:11:33 10° SSW 13:16:45 26° SE 13:24:38 10° E daylight
05 Mar - 15:28:46 10° WSW 15:36:42 60° SSE 15:51:40 10° E daylight
05 Mar - 17:48:10 10° W 17:59:18 63° S 18:19:09 10° ESE visible
05 Mar - 20:09:18 10° W 20:23:27 43° SSW 20:43:56 10° SE visible
05 Mar - 22:35:42 10° W 22:47:30 19° SW 23:00:51 10° S visible
06 Mar - 13:31:40 10° SSW 13:37:21 33° SSE 13:46:35 10° E daylight
06 Mar - 15:49:37 10° WSW 15:57:51 63° S 16:13:25 10° E daylight
06 Mar - 18:09:16 10° W 18:20:40 59° SSW 18:40:33 10° ESE visible
06 Mar - 20:30:56 10° W 20:44:46 36° SSW 21:04:01 10° SSE visible
06 Mar - 23:01:32 10° WSW 23:08:35 12° SW 23:16:08 10° SSW visible
07 Mar - 13:52:06 10° SW 13:58:06 42° SSE 14:08:22 10° E daylight
07 Mar - 16:10:32 10° WSW 16:19:03 64° S 16:35:09 10° ESE daylight
07 Mar - 18:30:25 10° W 18:42:02 53° SSW 19:01:42 10° SE visible
07 Mar - 20:52:54 10° W 21:06:02 29° SW 21:23:33 10° SSE visible
08 Mar - 11:56:58 10° S 11:59:57 14° SE 12:03:35 10° ESE daylight
08 Mar - 14:12:43 10° SW 14:18:58 49° SSE 14:30:04 10° E daylight
08 Mar - 16:31:31 10° W 16:40:17 62° S 16:56:48 10° ESE daylight
08 Mar - 18:51:41 10° W 19:03:23 46° SSW 19:22:32 10° SE visible
08 Mar - 21:15:27 10° W 21:27:17 23° SW 21:42:16 10° S visible
